Location: G�ndlingen
(48.0142°N, 7.6396°E)
Time: 18:57:33
(UTC+00:00)

Cosmos 2263 Rocket - Pass Details

Date: 05 July 2020
Orbit: 825 x 847 km, 71.0° (Epoch: 12 August)

Event Time Altitude Azimuth Distance (km) Brightness Sun altitude
Rises 20:24:53 0° 321° (NW) 3,373 7.9 -7.6°
Reaches altitude 10° 20:27:54 10° 305° (NW) 2,434 6.2 -7.9°
Maximum altitude 20:31:51 20° 259° (W) 1,810 4.4 -8.4°
Drops below altitude 10° 20:35:48 10° 214° (SSW) 2,422 4.4 -8.8°
Sets 20:38:48 0° 198° (SSW) 3,352 5.0 -9.1°
